{"data":{"norad_id":63088,"epoch":"2026-09-21T22:00:03.000096Z","epoch_age_seconds":39933,"freshness":"FRESH","line1":"1 63088U 25037M   26264.91670139 -.00012232  00000+0 -41080-3 0  9995","line2":"2 63088  69.9996 217.2205 0002873 267.0538 218.1413 15.30432132  5778","mean_motion":15.30432132,"eccentricity":0.0002873,"inclination_deg":69.9996,"raan_deg":217.2205,"arg_perigee_deg":267.0538,"mean_anomaly_deg":218.1413,"bstar":-0.0004108,"rev_number":577,"period_min":94.091072050231,"perigee_km":472.55328377192,"apogee_km":476.49082166361,"semimajor_km":6852.6590527178,"source":"CELESTRAK","updated_at":"2026-09-22T09:00:49.759651Z"}}